Regional Weather Roundup
Issued by NWS Cleveland, OH

Home | Current Version | Previous Version | Graphics & Text | Print | Product List | Glossary On
Versions: 1 2 3 4 5 6 7 8 9 10 11 12 13 14 15 16 17 18 19 20 21 22 23 24 25 26 27 28 29 30 31 32 33 34 35 36 37 38 39 40 41 42 43 44 45 46 47 48 49 50
082
ASUS41 KCLE 091202
RWRCLE
OHIO REGIONAL WEATHER ROUNDUP
NATIONAL WEATHER SERVICE CLEVELAND, OH
700 AM EST TUE FEB 09 2016

NOTE: "FAIR" INDICATES FEW OR NO CLOUDS BELOW 12,000 FEET WITH NO
SIGNIFICANT WEATHER AND/OR OBSTRUCTIONS TO VISIBILITY.

OHZ001>008-015>018-024>027-034-035-043-044-091300-
   NORTHWEST OHIO

CITY           SKY/WX    TMP DP  RH WIND       PRES   REMARKS
DEFIANCE       FLURRIES  29  23  78 W7        29.62R WCI  22
FINDLAY        CLOUDY    28  22  78 W18       29.61R WCI  15
TOLEDO EXPRESS LGT SNOW  28  25  88 W15       29.59R FOG     WCI  16
TOLEDO EXEC    LGT SNOW  30  25  81 SW14      29.59R WCI  19
LIMA           CLOUDY    26  22  84 W15       29.62S WCI  14
$$

OHZ009>014-019>023-028>033-038-089-091300-
   NORTHEAST OHIO

CITY           SKY/WX    TMP DP  RH WIND       PRES   REMARKS
CLE-HOPKINS    CLOUDY    31  26  82 W10       29.59R WCI  22
CLE-LAKEFRONT  CLOUDY    33  29  85 W16       29.56R WCI  23
CUY CO. ARPT   CLOUDY    34  32  93 W9        29.56  WCI  26
LORAIN-ELYRIA  MOCLDY    30  25  81 W9        29.57R WCI  22
ASHTABULA      CLOUDY    32  29  88 W12       29.54R WCI  23
AKRON-CANTON   CLOUDY    29  25  85 W8        29.55R WCI  21
WOOSTER        CLOUDY    29  25  85 W10       29.56S WCI  20
MANSFIELD      CLOUDY    27  24  89 W12       29.57R WCI  17
YOUNGSTOWN     FLURRIES  31  28  89 W6        29.53R WCI  25
$$

OHZ042-051>053-060>062-070>072-077>081-091300-
  SOUTHWEST OHIO

CITY           SKY/WX    TMP DP  RH WIND       PRES   REMARKS
CINC-COVINGTON LGT SNOW  20  17  88 SW7       29.73R FOG     WCI  11
CINC-LUNKEN    LGT SNOW  21  18  88 SW12      29.77R FOG     WCI   9
HAMILTON       LGT SNOW  22  19  89 W10       29.74R FOG     WCI  11
DAYTON         LGT SNOW  22  20  92 W13       29.68R FOG     WCI  10
WRIGHT-PAT AFB LGT SNOW  23  19  86 SW12      29.68R FOG     WCI  12
DAYTON GENERAL LGT SNOW  21  17  84 SW10      29.68S VSB 1   WCI  10
WILMINGTON     LGT SNOW  20  17  88 W15       29.68R VSB 1   WCI   6
$$

OHZ036-037-039>041-045>050-054>059-063>069-073>076-082>088-091300-
  CENTRAL AND SOUTHEAST OHIO

CITY           SKY/WX    TMP DP  RH WIND       PRES   REMARKS
COLUMBUS       LGT SNOW  23  20  88 SW12      29.65R FOG     WCI  12
OSU AIRPORT    LGT SNOW  26  22  84 W8        29.64R FOG     WCI  18
BOLTON FIELD   NOT AVBL
RICKENBACK AFB NOT AVBL
NEWARK         LGT SNOW  25  20  81 MISG      29.63R
MARION         CLOUDY    27  22  81 W10       29.61R HAZE    WCI  17
LANCASTER      FLURRIES  22  18  85 W12       29.66R WCI  10
ZANESVILLE     LGT SNOW  25  20  81 W15G21    29.62R WCI  13
NEW PHILLY     CLOUDY    30  26  85 CALM      29.58R
$$




USA.gov is the U.S. government's official web portal to all federal, state and local government web resources and services.